• In Moldova, Republic
  • List of Countries
  • For 7 days
  • Water Temperature
  • Satellite Maps
  • Weather Map
  • Weather Widgets
  • user-avatar
    Login

    Hourly Weather Newcastle

    Today, 20 February, Monday

    Time Temperature Precipitation Wind Pressure Humidity
    00:00 +18°C° 0 mm 3 mps 754 mmHg 78%
    01:00 +17°C° 0 mm 4 mps 755 mmHg 71%
    02:00 +15°C° 0 mm 4 mps 755 mmHg 65%
    03:00 +14°C° 0 mm 4 mps 755 mmHg 59%
    04:00 +14°C° 0 mm 5 mps 756 mmHg 61%
    05:00 +14°C° 0 mm 5 mps 756 mmHg 57%
    06:00 +15°C° 0 mm 5 mps 757 mmHg 53%
    07:00 +16°C° 0 mm 5 mps 757 mmHg 48%
    08:00 +19°C° 0 mm 5 mps 757 mmHg 43%
    09:00 +21°C° 0 mm 5 mps 757 mmHg 38%
    10:00 +25°C° 0 mm 4 mps 758 mmHg 31%
    11:00 +26°C° 0 mm 4 mps 757 mmHg 28%
    12:00 +28°C° 0 mm 3 mps 757 mmHg 25%
    13:00 +29°C° 0 mm 3 mps 757 mmHg 22%
    14:00 +29°C° 0 mm 3 mps 757 mmHg 22%
    15:00 +30°C° 0 mm 3 mps 757 mmHg 21%
    16:00 +30°C° 0 mm 3 mps 757 mmHg 21%
    17:00 +27°C° 0 mm 3 mps 758 mmHg 31%
    18:00 +24°C° 0 mm 3 mps 758 mmHg 42%
    19:00 +19°C° 0 mm 3 mps 759 mmHg 52%
    20:00 +19°C° 0 mm 3 mps 760 mmHg 57%
    21:00 +18°C° 0 mm 3 mps 760 mmHg 62%
    22:00 +18°C° 0 mm 3 mps 761 mmHg 67%
    23:00 +16°C° 0 mm 3 mps 761 mmHg 72%

    Tomorrow, 21 February, Tuesday

    Time Temperature Precipitation Wind Pressure Humidity
    00:00 +15°C° 0 mm 2 mps 761 mmHg 78%
    01:00 +14°C° 0 mm 2 mps 761 mmHg 83%
    02:00 +14°C° 0 mm 2 mps 761 mmHg 85%
    03:00 +14°C° 0 mm 2 mps 762 mmHg 86%
    04:00 +13°C° 0 mm 2 mps 762 mmHg 87%
    05:00 +15°C° 0 mm 2 mps 762 mmHg 80%
    06:00 +18°C° 0 mm 1 mps 762 mmHg 73%
    07:00 +19°C° 0 mm 1 mps 763 mmHg 66%
    08:00 +22°C° 0 mm 1 mps 763 mmHg 59%
    09:00 +25°C° 0 mm 1 mps 763 mmHg 52%
    10:00 +28°C° 0 mm 1 mps 763 mmHg 44%
    11:00 +29°C° 0 mm 2 mps 763 mmHg 42%
    12:00 +29°C° 0 mm 3 mps 763 mmHg 40%
    13:00 +30°C° 0 mm 4 mps 762 mmHg 38%
    14:00 +30°C° 0 mm 4 mps 762 mmHg 41%
    15:00 +29°C° 0 mm 5 mps 762 mmHg 43%
    16:00 +29°C° 0 mm 5 mps 762 mmHg 45%
    17:00 +27°C° 0 mm 5 mps 762 mmHg 52%
    18:00 +25°C° 0 mm 5 mps 763 mmHg 58%
    19:00 +23°C° 0 mm 5 mps 763 mmHg 65%
    20:00 +22°C° 0 mm 5 mps 764 mmHg 69%
    21:00 +22°C° 0 mm 5 mps 764 mmHg 72%
    22:00 +21°C° 0 mm 5 mps 765 mmHg 76%
    23:00 +21°C° 0 mm 5 mps 765 mmHg 78%

    Day after tomorrow, 22 February, Wednesday

    Time Temperature Precipitation Wind Pressure Humidity
    00:00 +20°C° 0 mm 4 mps 764 mmHg 81%
    01:00 +20°C° 0 mm 4 mps 764 mmHg 83%
    02:00 +19°C° 0 mm 4 mps 764 mmHg 87%
    03:00 +19°C° 0 mm 4 mps 764 mmHg 90%
    04:00 +18°C° 0 mm 3 mps 764 mmHg 93%
    05:00 +19°C° 0 mm 3 mps 764 mmHg 89%
    06:00 +20°C° 0 mm 4 mps 764 mmHg 85%
    07:00 +21°C° 0 mm 4 mps 764 mmHg 81%
    08:00 +23°C° 0 mm 4 mps 764 mmHg 72%
    09:00 +26°C° 0 mm 4 mps 764 mmHg 63%
    10:00 +29°C° 0 mm 4 mps 764 mmHg 53%
    11:00 +30°C° 0 mm 5 mps 764 mmHg 50%
    12:00 +32°C° 0 mm 5 mps 763 mmHg 47%
    13:00 +33°C° 0 mm 5 mps 762 mmHg 43%
    14:00 +32°C° 0 mm 5 mps 762 mmHg 45%
    15:00 +32°C° 0 mm 6 mps 762 mmHg 46%
    16:00 +32°C° 0 mm 6 mps 761 mmHg 48%
    17:00 +29°C° 0 mm 6 mps 761 mmHg 55%
    18:00 +27°C° 0 mm 6 mps 762 mmHg 62%
    19:00 +24°C° 0 mm 6 mps 762 mmHg 70%
    20:00 +23°C° 0 mm 6 mps 762 mmHg 73%
    21:00 +23°C° 0 mm 6 mps 763 mmHg 76%
    22:00 +22°C° 0 mm 6 mps 763 mmHg 79%
    23:00 +21°C° 0 mm 5 mps 763 mmHg 83%

    23 February, Thursday

    Time Temperature Precipitation Wind Pressure Humidity
    00:00 +20°C° 0 mm 5 mps 763 mmHg 86%
    01:00 +20°C° 0 mm 4 mps 762 mmHg 90%
    02:00 +19°C° 0 mm 4 mps 762 mmHg 92%
    03:00 +18°C° 0 mm 4 mps 762 mmHg 94%
    04:00 +17°C° 0 mm 3 mps 762 mmHg 95%
    05:00 +18°C° 0 mm 3 mps 762 mmHg 91%
    06:00 +20°C° 0 mm 3 mps 763 mmHg 86%
    07:00 +21°C° 0 mm 2 mps 763 mmHg 81%
    08:00 +26°C° 0 mm 2 mps 763 mmHg 67%
    09:00 +30°C° 0 mm 2 mps 764 mmHg 53%
    10:00 +35°C° 0 mm 2 mps 764 mmHg 39%
    11:00 +35°C° 0 mm 3 mps 763 mmHg 36%
    12:00 +36°C° 0 mm 3 mps 763 mmHg 34%
    13:00 +37°C° 0 mm 4 mps 763 mmHg 31%
    14:00 +36°C° 0 mm 4 mps 763 mmHg 36%
    15:00 +35°C° 0 mm 5 mps 763 mmHg 41%
    16:00 +33°C° 0 mm 5 mps 762 mmHg 46%
    17:00 +30°C° 0 mm 5 mps 763 mmHg 54%
    18:00 +28°C° 0 mm 5 mps 763 mmHg 63%
    19:00 +25°C° 0 mm 4 mps 764 mmHg 72%
    20:00 +23°C° 0 mm 4 mps 764 mmHg 77%
    21:00 +22°C° 0 mm 4 mps 765 mmHg 82%
    22:00 +21°C° 0 mm 3 mps 765 mmHg 87%
    23:00 +20°C° 0 mm 3 mps 765 mmHg 90%

    24 February, Friday

    Time Temperature Precipitation Wind Pressure Humidity
    00:00 +19°C° 0 mm 3 mps 765 mmHg 92%
    01:00 +19°C° 0 mm 2 mps 765 mmHg 95%
    02:00 +18°C° 0 mm 2 mps 765 mmHg 96%
    03:00 +18°C° 0 mm 2 mps 765 mmHg 97%
    04:00 +19°C° 0 mm 1 mps 765 mmHg 98%
    05:00 +20°C° 0 mm 1 mps 766 mmHg 93%
    06:00 +21°C° 0 mm 1 mps 766 mmHg 88%
    07:00 +23°C° 0 mm 1 mps 767 mmHg 83%
    08:00 +25°C° 0 mm 1 mps 767 mmHg 72%
    09:00 +27°C° 0 mm 2 mps 766 mmHg 61%
    10:00 +30°C° 0 mm 2 mps 766 mmHg 50%
    11:00 +30°C° 0 mm 3 mps 766 mmHg 47%
    12:00 +31°C° 0 mm 3 mps 765 mmHg 44%
    13:00 +33°C° 0 mm 3 mps 765 mmHg 41%
    14:00 +33°C° 0 mm 3 mps 764 mmHg 44%
    15:00 +32°C° 0 mm 4 mps 764 mmHg 46%
    16:00 +30°C° 0 mm 4 mps 763 mmHg 49%
    17:00 +28°C° 0 mm 4 mps 764 mmHg 58%
    18:00 +26°C° 0 mm 3 mps 764 mmHg 67%
    19:00 +24°C° 0 mm 3 mps 764 mmHg 76%
    20:00 +22°C° 0 mm 3 mps 764 mmHg 81%
    21:00 +21°C° 0 mm 3 mps 765 mmHg 87%
    22:00 +20°C° 0 mm 3 mps 765 mmHg 92%
    23:00 +19°C° 0 mm 2 mps 764 mmHg 94%

    25 February, Saturday

    Time Temperature Precipitation Wind Pressure Humidity
    00:00 +19°C° 0 mm 2 mps 764 mmHg 96%
    01:00 +18°C° 0 mm 2 mps 763 mmHg 98%
    02:00 +19°C° 0 mm 1 mps 763 mmHg 98%
    03:00 +19°C° 0 mm 1 mps 763 mmHg 98%
    04:00 +19°C° 0 mm 1 mps 763 mmHg 98%
    05:00 +20°C° 0 mm 1 mps 763 mmHg 95%
    06:00 +21°C° 0 mm 1 mps 764 mmHg 92%
    07:00 +22°C° 0 mm 1 mps 764 mmHg 89%
    08:00 +24°C° 0 mm 1 mps 764 mmHg 77%
    09:00 +27°C° 0 mm 1 mps 764 mmHg 65%
    10:00 +29°C° 0 mm 2 mps 764 mmHg 53%
    11:00 +29°C° 0 mm 3 mps 763 mmHg 54%
    12:00 +30°C° 0 mm 4 mps 763 mmHg 54%
    13:00 +30°C° 0 mm 4 mps 763 mmHg 55%
    14:00 +29°C° 0.3 mm 5 mps 763 mmHg 61%
    15:00 +27°C° 0.3 mm 6 mps 763 mmHg 66%
    16:00 +26°C° 0.3 mm 7 mps 763 mmHg 72%
    17:00 +24°C° 0.1 mm 7 mps 763 mmHg 75%
    18:00 +23°C° 0.1 mm 7 mps 764 mmHg 78%
    19:00 +22°C° 0.1 mm 7 mps 765 mmHg 81%
    20:00 +22°C° 0.1 mm 7 mps 765 mmHg 81%
    21:00 +21°C° 0.1 mm 7 mps 765 mmHg 81%
    22:00 +21°C° 0.1 mm 6 mps 765 mmHg 81%
    23:00 +21°C° 0.1 mm 6 mps 765 mmHg 80%
    Show more